Miscellaneous Local Product
Issued by NWS Hastings, NE

Home | Current Version | Previous Version | Graphics & Text | Print | Product List | Glossary On
Versions: 1 2 3 4 5 6 7 8 9 10 11 12 13 14 15 16 17 18 19 20 21 22 23 24 25 26 27 28 29 30 31 32 33 34 35 36 37 38 39 40 41 42 43 44 45 46 47 48 49 50
000
AXUS43 KGID 261302
MISGRI

GID CWA HOURLY WEATHER ROUNDUP
NATIONAL WEATHER SERVICE HASTINGS NE
800 AM CDT THU MAY 26 2016

NOTE: "FAIR" INDICATES FEW OR NO CLOUDS BELOW 12,000 FEET WITH NO
SIGNIFICANT WEATHER AND/OR OBSTRUCTIONS TO VISIBILITY.

...SOUTH CENTRAL NEBRASKA...

CITY           SKY/WX    TMP DP  RH WIND       PRES   REMARKS
GRAND ISLAND   MOSUNNY   60  56  86 N7        29.90R
HASTINGS       MOSUNNY   59  53  80 E8        29.89S
KEARNEY        CLOUDY    55  52  88 N6        29.90S
ORD            MOSUNNY   58  53  84 S3        29.89S
YORK           PTSUNNY   59  55  88 SE7       29.89F
AURORA         PTSUNNY   58  57  94 E5        29.89R
LEXINGTON      CLOUDY    56  53  88 CALM      29.90F
HOLDREGE       CLOUDY    56  53  89 CALM      29.89S
HEBRON         SUNNY     59  55  88 CALM      29.88S

...NEBRASKA PANHANDLE...

CITY           SKY/WX    TMP DP  RH WIND       PRES   REMARKS
CHADRON        SUNNY     46  42  86 SW3       29.92S
ALLIANCE       SUNNY     44  42  93 SW3       29.94R
SCOTTSBLUFF    SUNNY     48  42  80 NW6       29.96R
SIDNEY         CLOUDY    48  43  82 SW5       29.99R

...WESTERN AND NORTH CENTRAL NEBRASKA...

CITY           SKY/WX    TMP DP  RH WIND       PRES   REMARKS
VALENTINE      MOSUNNY   52  48  86 CALM      29.89S
AINSWORTH      PTSUNNY   55  52  91 CALM      29.88F
ONEILL         MOSUNNY   58  54  85 CALM      29.88F
BROKEN BOW     PTSUNNY   58  52  80 SE3       29.90S
IMPERIAL       MOSUNNY   55  51  86 N5        29.91S
NORTH PLATTE   CLOUDY    54  52  93 E7        29.90S
MCCOOK         SUNNY     55  51  86 NE6       29.89F

...EASTERN NEBRASKA...

CITY           SKY/WX    TMP DP  RH WIND       PRES   REMARKS
NORFOLK        MOSUNNY   62  55  77 CALM      29.90S
SO SIOUX CITY  SUNNY     62  58  86 S3        29.90R
TEKAMAH        SUNNY     63  57  81 SW6       29.90R
COLUMBUS       CLOUDY    61  52  72 CALM      29.92R
ALBION         CLOUDY    59  54  83 SE5       29.92R
OMAHA EPPLEY   MOSUNNY   65  59  81 CALM      29.88S
MILLARD        SUNNY     63  59  86 CALM      29.88F
LINCOLN        SUNNY     64  58  80 CALM      29.89F
NEBRASKA CITY  SUNNY     66  61  82 CALM      29.87S
BEATRICE       SUNNY     66  60  81 E5        29.87F
FALLS CITY     SUNNY     68  63  84 E6        29.86F

...NORTHERN KANSAS...

CITY           SKY/WX    TMP DP  RH WIND       PRES   REMARKS
GOODLAND       SUNNY     56  48  74 N5        29.89S
HILL CITY      MOSUNNY   56  52  86 N6        29.88R
NORTON         PTSUNNY   57  48  72 NW7       29.89R
PHILLIPSBURG   SUNNY     63  52  67 CALM      29.90R
SMITH CENTER   SUNNY     61  54  77 E15       29.86F
BELOIT         PTSUNNY   63  55  77 E8        29.84F
HAYS           CLOUDY    55  52  88 NE16      29.82S
RUSSELL        CLOUDY    61  57  87 NE12      29.82S
CONCORDIA      MOSUNNY   63  57  81 E8        29.84F
SALINA         CLOUDY    67  64  90 E7        29.83S
TOPEKA         CLOUDY    68  62  81 E6        29.87S



USA.gov is the U.S. government's official web portal to all federal, state and local government web resources and services.